Regional Weather Roundup
Issued by NWS

Home | Current Version | Previous Version | Text Only | Print | Product List | Glossary Off
Versions: 1 2 3 4 5 6 7 8 9 10 11 12 13 14 15 16 17 18 19 20 21 22 23 24 25 26 27 28 29 30 31 32 33 34 35 36 37 38 39 40 41 42 43 44 45 46 47 48 49 50

000
ASUS43 KMKX 241620
RWRWI

WISCONSIN REGIONAL WEATHER ROUNDUP
NATIONAL WEATHER SERVICE MILWAUKEE/SULLIVAN WI
1100 AM CDT THU JUL 24 2014

NOTE: "FAIR" INDICATES FEW OR NO CLOUDS BELOW 12,000 FEET WITH NO
SIGNIFICANT WEATHER AND/OR OBSTRUCTIONS TO VISIBILITY.

WIZ001-002-006>008-014>016-023>028-241700-
NORTHWEST WISCONSIN

CITY           SKY/WX    TMP DP  RH WIND       PRES   REMARKS
SUPERIOR ARPT  SUNNY     70  59  68 E3        30.12F
ASHLAND        SUNNY     72  56  57 W3        30.15F
HAYWARD        SUNNY     73  53  49 VRB6      30.15F
SIREN          MOSUNNY   76  55  48 SW6       30.13F
RICE LAKE      MOSUNNY   74  52  46 S7        30.16F
LADYSMITH      SUNNY     72  52  49 S3        30.17F
EAU CLAIRE     MOSUNNY   75  52  44 S6        30.16R
MENOMONIE      MOSUNNY   76  53  43 S8        30.14F
NEW RICHMOND   SUNNY     74  57  55 SW7       30.15F
OSCEOLA        SUNNY     75  57  52 S6        30.16F
$$

WIZ003>005-009-010-017-018-241700-
NORTH CENTRAL WISCONSIN

CITY           SKY/WX    TMP DP  RH WIND       PRES   REMARKS
WOODRUFF       MOSUNNY   74  50  43 W5        30.17S
RHINELANDER      N/A     68  49  50 VRB3      30.18S
EAGLE RIVER    MOSUNNY   68  46  45 N3        30.16F
LAND O LAKES   MOSUNNY   69  47  45 SW3       30.17F
PHILLIPS       SUNNY     72  50  45 CALM      30.16S
TOMAHAWK       PTSUNNY   67  49  51 CALM      30.18S
MEDFORD        MOSUNNY   70  51  51 NE3       30.18S
MERRILL        SUNNY     69  52  54 CALM      30.18R
$$

WIZ029-030-035-036-043>047-241700-
CENTRAL WISCONSIN

CITY           SKY/WX    TMP DP  RH WIND       PRES   REMARKS
WAUSAU         SUNNY     70  51  51 S6        30.16S
MOSINEE        SUNNY     70  52  52 S5        30.19S
MARSHFIELD     SUNNY     70  55  59 W3        30.18R
STEVENS POINT  SUNNY     69  48  47 SW7       30.19R
WAUPACA        SUNNY     74  48  38 W5        30.18S
WAUTOMA        SUNNY     73  50  44 VRB6      30.19R
WISC RAPIDS    SUNNY     72  50  45 S6        30.19R
CAMP DOUGLAS   MOSUNNY   72  57  60 S7        30.18S
$$

WIZ011>013-019>022-031-037>040-048>050-241700-
NORTHEAST WISCONSIN

CITY           SKY/WX    TMP DP  RH WIND       PRES   REMARKS
ANTIGO         SUNNY     67  50  56 W5        30.18F
STURGEON BAY   SUNNY     68  46  45 CALM      30.17F
GREEN BAY      SUNNY     71  45  39 CALM      30.17F
MANITOWOC      SUNNY     66  48  52 SE8       30.18F
APPLETON       MOSUNNY   70  46  43 CALM      30.19S
CLINTONVILLE   SUNNY     72  50  46 S5        30.18S
OSHKOSH        SUNNY     69  50  50 VRB5      30.18S
$$

WIZ032>034-041-042-053>061-241700-
SOUTHWEST WISCONSIN

CITY           SKY/WX    TMP DP  RH WIND       PRES   REMARKS
LA CROSSE        N/A     74  59  59 SW5         N/A
SPARTA         SUNNY     73  54  52 S3        30.18S
VIROQUA        FAIR      71  57  62 SW3       30.19S
BOSCOBEL       SUNNY     75  52  44 SW6       30.18S
PRAIRIE DU CHI SUNNY     72  54  52 SW3       30.17S
PLATTEVILLE    FAIR      71  53  54 S5        30.20F
$$

WIZ056-057-062-063-064-067-068-241700-
SOUTH CENTRAL WISCONSIN

CITY           SKY/WX    TMP DP  RH WIND       PRES   REMARKS
BARABOO/DELLS  MOSUNNY   71  46  39 SW3       30.19S
LONE ROCK      SUNNY     76  54  46 VRB3      30.18F
WATERTOWN      SUNNY     70  49  48 CALM      30.18S
MADISON        PTSUNNY   72  50  45 SE5       30.19R
MIDDLETON      PTSUNNY   72  45  37 E3        30.19S
MONROE         SUNNY     70  52  52 SE5       30.19S
JANESVILLE     MOSUNNY   72  46  40 NE9       30.18S
$$

WIZ051-052-058>065-066-070>072-241700-
SOUTHEAST WISCONSIN

CITY           SKY/WX    TMP DP  RH WIND       PRES   REMARKS
MILWAUKEE      MOSUNNY   66  54  65 NE7       30.19R
WAUKESHA       SUNNY     68  46  45 E7        30.20R
MILWAUKEE/TIMM NOT AVBL
RACINE         SUNNY     67  55  65 VRB5      30.21R
BURLINGTON     SUNNY     68  49  51 E8        30.19S
KENOSHA        SUNNY     68  52  56 E8        30.20R
FOND DU LAC    SUNNY     72  48  42 NE6       30.18S
SHEBOYGAN      SUNNY     68  45  43 NE6       30.19S
WEST BEND      SUNNY     70  46  43 E3        30.19S
JUNEAU         SUNNY     70  44  39 CALM      30.20S
$$

LSZ147-162-241700-
LAKE SUPERIOR

STATION/POSITION TIME  TEMP    WIND        PRES    WAVE
                       AIR SEA DIR/SP/G            HT/PER
                 (UTC) (F)     (DEG/KT/KT) (MB)    (FT/S)
$$

LMZ867-665-643>646-241700-
LAKE MICHIGAN

STATION/POSITION TIME  TEMP    WIND        PRES    WAVE
                       AIR SEA DIR/SP/G            HT/PER
                 (UTC) (F)     (DEG/KT/KT) (MB)    (FT/S)
$$

TC  - TEMPERATURE IN CELSIUS
VSB - VISIBILITY IN STATUTE MILES
WCI - WIND CHILL INDEX
HX  - HEAT INDEX




USA.gov is the U.S. government's official web portal to all federal, state and local government web resources and services.